Location: Brede
(50.9167°N, 0.6000°E)
Time: 20:02:52
(UTC+00:00)

Vanguard 1 Rocket - Pass Details

Date: 26 November 2020
Orbit: 655 x 4221 km, 34.3° (Epoch: 17 January)

Event Time Altitude Azimuth Distance (km) Brightness Sun altitude
Exits shadow 02:01:41 37° 158° (SSE) 4,654 10.7 -49.9°
Drops below altitude 10° 02:15:48 10° 101° (ESE) 5,223 11.6 -48.1°
Sets 02:19:26 0° 93° (E) 5,807 12.0 -47.6°
